User: anonymous   Login
Location: Unspecified
(0.0000°N, 0.0000°E)
Time: 20:11:12
(UTC+00:00)
Language:

APRIZESAT 1 (LATINSAT C) - Orbit

View from above orbital plane
View from above orbital plane
View from above satellite
View from above satellite

Ground track
Ground track

The orbit data is extracted from the following two-line orbital elements,

1 28372U 04025G   18114.81792956 -.00000002 +00000-0 +11219-4 0  9996
2 28372 098.2957 061.9785 0045603 215.3912 144.4253 14.49542869730668
Epoch (UTC): 24 April 2018 19:37:49
Eccentricity: 0.0045603
inclination: 98.2957°
perigee height: 695 km
apogee height: 759 km
right ascension of ascending node: 61.9785°
argument of perigee: 215.3912°
revolutions per day: 14.49542869
mean anomaly at epoch: 144.4253°
orbit number at epoch: 73066

The dashed part of the orbit path shows where the satellite is in the earth's shadow,  

DLR